ROMMA est une association bénévole à but non lucratif. Votre soutien est indispensable : ADHERER à ROMMA ou FAIRE un DON

Briord - (01, Ain)

Bugey (281 m)   Longitude: 05° 29' 13" E   Latitude: 45° 46' 37" N Station partenaire n°15
 

Détail journalier du     <<     >>

Température Precipitation Humidité Pression Vent Dir Rafale Dir. rafale Ensol.
Heure (°C) (mm) (%) (hPa) (km/h) (km/h) (min)
01:00 25.2061101505SSE0
02:00 24.1069101503S0
03:00 23.6073101603ENE0
04:00 24.107010161SE13NNE0
05:00 26.005910153E15ESE0
06:00 23.107010151---8ENE0
07:00 21.7075101500---0
08:00 20.8078101500---0
09:00 20.6082101500---0
10:00 21.7080101500---0
11:00 26.1067101600---0
12:00 28.905910161---11SSO0
13:00 31.905110152ONO10O0
14:00 33.604410153SE15O20
15:00 35.404010153SE16SE60
16:00 36.103610144ONO18S60
17:00 37.203410143S19S60
18:00 37.903210133ONO16ONO60
19:00 39.103010123ONO15SO60
20:00 39.102910123NO15NNO60
21:00 38.802910126NO18ONO55
22:00 38.203010124NO15ONO0
23:00 35.403810121NO6N0
minuit 31.504710131NE10NE0

Graphique du 24-07-2019

 

Serveur OMMA